Location: Asbacherhof
(48.8543°N, 10.7903°E)
Time: 23:06:18
(UTC+00:00)

Cosmos 1943 Rocket - Pass Details

Date: 26 May 2022
Orbit: 810 x 845 km, 71.0° (Epoch: 29 June)

Event Time Altitude Azimuth Distance (km) Brightness Sun altitude
Rises 01:25:09 0° 329° (NNW) 3,413 5.7 -14.2°
Reaches altitude 10° 01:27:38 10° 325° (NW) 2,476 4.9 -14.0°
Maximum altitude 01:33:11 56° 249° (WSW) 1,001 2.3 -13.5°
Drops below altitude 10° 01:38:41 10° 172° (S) 2,457 4.2 -13.0°
Enters shadow 01:39:16 - 171° (S) 2,673 4.4 -12.9°
